Location: Brno
(49.2000°N, 16.6333°E)
Time: 20:33:18
(UTC+01:00)

ISS - Pass Details

Date: 28 January 2019
Orbit: 403 x 411 km, 51.6° (Epoch: 18 February)

Event Time Altitude Azimuth Distance (km) Brightness Sun altitude
Rises 17:30:59 0° 239° (WSW) 2,325 2.0 -8.1°
Reaches altitude 10° 17:33:04 10° 236° (SW) 1,468 0.5 -8.4°
Maximum altitude 17:36:20 63° 154° (SSE) 462 -3.6 -8.9°
Enters shadow 17:39:08 14° 75° (ENE) 1,282 -2.0 -9.3°
